Погода в Каварне

Болгария     43°26′09″N   28°20′21″E
темп.,
°C
ветер,
м/с
пор.,
м/с
влажн.,
%
обл.,
%
осадки,
мм/ч
давл.,
гПа
погр.,
м
20 июня, вс
вс2000:00+17св2498100 0.4 1013244
03:00+16с3597100 1.3 1013238
06:00+16ссз359598 0.6 1012162
09:00+18сз348483 0.7 1012269
12:00+22зсз336963 0.3 1012837
15:00+21ссз447673 1.8 1012651
18:00+22сз126928 0.6 1011823
21:00+19ю11855 1.4 101146
21 июня, пн
пн2100:00+18юз22905 0.0 101124
03:00+17сз33915 0.0 101138
06:00+16сз339259 0.0 101164
09:00+21сз22778 0.0 1012386
12:00+24ю226656 0.1 10121116
15:00+22ю437511 0.6 1011482
18:00+22ю32775 0.1 1011356
21:00+18ю238925 0.2 101235
22 июня, вт
вт2200:00+18ююз22904 0.0 101226
03:00+17зюз229056 0.0 101118
06:00+18зсз2288100 0.0 101121
09:00+22сз2274100 0.0 1012330
12:00+26ссв1260100 0.0 10121091
15:00+27юв235898 0.0 10121434
18:00+24ю32736 0.0 1012317
21:00+21зюз33845 0.1 101236
23 июня, ср
ср2300:00+21з22815 0.1 101221
03:00+21зсз34794 0.1 101254
06:00+20сз4581100 0.0 101272
09:00+25сз34695 0.0 1013348
12:00+28с23592 0.7 10131103
15:00+29ююв245780 1.3 1013974
18:00+25ююв21778 7.1 1014244
21:00+23з228386 8.9 101417
24 июня, чт
чт2400:00+23ссз338596 0.7 101536
03:00+22с3482100 4.6 101450
06:00+20ссз45835 0.0 101577
09:00+24ссз46690 0.1 1015287
12:00+28ссв45620 0.0 1016913
15:00+29св34619 0.1 10151315
18:00+27вюв33711 0.2 1015353
21:00+22з11890 0.5 101615